TimeCST,TemperatureF,Dew PointF,Humidity,Sea Level PressureIn,VisibilityMPH,Wind Direction,Wind SpeedMPH,Gust SpeedMPH,PrecipitationIn,Events,Conditions,WindDirDegrees,DateUTC
12:51 AM,77.0,73.0,88,30.04,10.0,SSE,15.0,-,N/A,,Mostly Cloudy,160,2011-11-21 06:51:00
1:51 AM,75.9,73.0,91,30.04,10.0,SSE,13.8,-,N/A,,Overcast,160,2011-11-21 07:51:00
2:51 AM,75.9,73.0,91,30.03,10.0,SSE,13.8,-,N/A,,Overcast,150,2011-11-21 08:51:00
3:51 AM,75.9,73.0,91,30.03,10.0,SSE,10.4,-,N/A,,Overcast,150,2011-11-21 09:51:00
4:51 AM,75.9,73.0,91,30.02,10.0,SSE,13.8,-,N/A,,Overcast,150,2011-11-21 10:51:00
5:51 AM,75.9,73.0,91,30.02,10.0,SSE,12.7,-,N/A,,Mostly Cloudy,150,2011-11-21 11:51:00
6:13 AM,75.2,73.4,94,30.03,10.0,SE,15.0,-,N/A,,Overcast,140,2011-11-21 12:13:00
6:51 AM,75.9,73.0,91,30.03,7.0,SE,16.1,-,N/A,,Mostly Cloudy,140,2011-11-21 12:51:00
7:06 AM,75.2,73.4,94,30.04,7.0,SSE,16.1,-,N/A,,Scattered Clouds,150,2011-11-21 13:06:00
7:24 AM,75.2,73.4,94,30.03,7.0,SSE,16.1,-,N/A,,Mostly Cloudy,150,2011-11-21 13:24:00
7:51 AM,75.9,73.0,91,30.04,7.0,SSE,15.0,-,N/A,,Overcast,150,2011-11-21 13:51:00
8:00 AM,77.0,73.4,89,30.04,10.0,SSE,15.0,-,N/A,,Mostly Cloudy,150,2011-11-21 14:00:00
8:45 AM,78.8,73.4,83,30.04,10.0,SSE,24.2,-,N/A,,Mostly Cloudy,150,2011-11-21 14:45:00
8:51 AM,79.0,73.0,82,30.04,10.0,SSE,21.9,-,N/A,,Mostly Cloudy,150,2011-11-21 14:51:00
9:01 AM,80.6,71.6,74,30.05,10.0,SSE,26.5,32.2,N/A,,Mostly Cloudy,150,2011-11-21 15:01:00
9:51 AM,82.0,72.0,71,30.05,10.0,SSE,26.5,33.4,N/A,,Mostly Cloudy,150,2011-11-21 15:51:00
10:51 AM,82.9,71.1,67,30.03,10.0,SSE,25.3,36.8,N/A,,Overcast,150,2011-11-21 16:51:00
11:14 AM,82.4,71.6,70,30.02,10.0,SSE,27.6,33.4,N/A,,Overcast,160,2011-11-21 17:14:00
11:51 AM,82.0,71.1,69,30.01,10.0,SSE,27.6,34.5,N/A,,Mostly Cloudy,150,2011-11-21 17:51:00
12:51 PM,82.9,71.1,67,29.96,10.0,SSE,29.9,35.7,N/A,,Mostly Cloudy,150,2011-11-21 18:51:00
1:51 PM,82.0,71.1,69,29.94,10.0,SSE,27.6,35.7,N/A,,Mostly Cloudy,150,2011-11-21 19:51:00
2:51 PM,82.9,71.1,67,29.91,10.0,SSE,26.5,32.2,N/A,,Mostly Cloudy,150,2011-11-21 20:51:00
3:51 PM,81.0,71.1,72,29.91,10.0,SSE,26.5,35.7,N/A,,Mostly Cloudy,150,2011-11-21 21:51:00
4:15 PM,80.6,71.6,74,29.92,10.0,SSE,23.0,29.9,N/A,,Overcast,150,2011-11-21 22:15:00
4:51 PM,80.1,72.0,76,29.90,10.0,SSE,25.3,32.2,N/A,,Mostly Cloudy,150,2011-11-21 22:51:00
4:59 PM,80.6,71.6,74,29.90,10.0,SE,26.5,35.7,N/A,,Mostly Cloudy,140,2011-11-21 22:59:00
5:51 PM,78.1,72.0,81,29.89,10.0,SE,23.0,33.4,N/A,,Scattered Clouds,140,2011-11-21 23:51:00
6:43 PM,77.0,71.6,83,29.88,10.0,SSE,26.5,33.4,N/A,,Mostly Cloudy,150,2011-11-22 00:43:00
6:51 PM,77.0,72.0,84,29.88,10.0,SE,24.2,31.1,N/A,,Scattered Clouds,140,2011-11-22 00:51:00
7:51 PM,77.0,72.0,84,29.89,10.0,SSE,25.3,32.2,N/A,,Scattered Clouds,150,2011-11-22 01:51:00
8:06 PM,77.0,71.6,83,29.88,10.0,SSE,27.6,34.5,N/A,,Partly Cloudy,150,2011-11-22 02:06:00
8:23 PM,77.0,71.6,83,29.87,10.0,SSE,27.6,33.4,N/A,,Mostly Cloudy,150,2011-11-22 02:23:00
8:41 PM,77.0,71.6,83,29.87,10.0,SSE,28.8,38.0,N/A,,Scattered Clouds,150,2011-11-22 02:41:00
8:51 PM,77.0,73.0,88,29.88,10.0,SSE,24.2,35.7,N/A,,Mostly Cloudy,160,2011-11-22 02:51:00
9:01 PM,77.0,73.4,89,29.89,10.0,SSE,24.2,29.9,N/A,,Mostly Cloudy,160,2011-11-22 03:01:00
9:51 PM,77.0,73.0,88,29.89,10.0,South,20.7,35.7,N/A,,Overcast,170,2011-11-22 03:51:00
10:51 PM,78.1,73.0,84,29.90,10.0,South,27.6,32.2,N/A,,Overcast,170,2011-11-22 04:51:00
11:51 PM,78.1,73.0,84,29.90,10.0,South,20.7,-,N/A,,Overcast,170,2011-11-22 05:51:00